Location: Hermaringen
(48.5952°N, 10.2585°E)
Time: 02:51:38
(UTC+00:00)

Altair - Pass Details

Date: 25 February 2026
Orbit: 1502 x 1682 km, 47.2° (Epoch: 13 March)

Event Time Altitude Azimuth Distance (km) Brightness Sun altitude
Rises 00:04:01 0° 187° (S) 4,633 - -50.0°
Reaches altitude 10° 00:08:05 10° 171° (S) 3,646 - -49.8°
Maximum altitude 00:14:06 20° 129° (SE) 2,948 - -49.6°
Exits shadow 00:19:42 11° 90° (E) 3,579 9.5 -49.3°
Drops below altitude 10° 00:20:09 10° 87° (E) 3,670 9.6 -49.3°
Sets 00:24:14 0° 72° (ENE) 4,674 10.4 -49.1°
